Simultaneous Nadir Overpasses (SNOs) Predictions

Prediction of SNOs between GOES-16 and NOAA-20 Satellite Orbit:

Table of predicted SNOs for the next 14.0 days since TLE Epoch: 8/3/2018
Index Date Time (GOES-16) GOES-16 Lat,Lon NOAA-20 Lat,Lon Distance(km) Time Diff (sec)
1 08/05/2018 18:26:07 0.03, -75.25 -0.06, -75.76 57.72 80
2 08/06/2018 18:10:02 0.03, -75.26 0.94, -71.23 459.83 80
3 08/08/2018 06:31:50 -0.03, -75.28 0.22, -76.50 139.42 80
4 08/09/2018 06:10:26 -0.04, -75.29 -0.79, -71.97 378.13 80
5 08/10/2018 18:32:23 0.04, -75.31 -0.38, -77.28 224.20 80
6 08/11/2018 18:16:19 0.04, -75.33 0.62, -72.75 293.84 80
7 08/13/2018 06:38:07 -0.05, -75.36 0.54, -78.03 304.11 80
8 08/14/2018 06:16:43 -0.04, -75.38 -0.47, -73.50 214.44 80
9 08/15/2018 18:38:40 0.05, -75.41 -0.69, -78.81 386.36 80
10 08/16/2018 18:22:35 0.05, -75.44 0.31, -74.28 132.68 80




NCC Satellite Simultaneous Nadir Overpasses (SNOs) Prediction Service
